This is the latest recevied weather packets stored in our database for station/object KC8BSD. If no packets are shown the sender has not sent any weather packets the latest 10 day(s).
| Time | Temp. | Humidity | Pressure | Rain* | Wind** | Luminosity | Snow |
|---|---|---|---|---|---|---|---|
| 1777994148 | 12.22° C | 68% | 1008.3 hPa | 0 mm | - | 122 W/m² | - |
| 1777993846 | 12.22° C | 67% | 1008.1 hPa | 0 mm | - | 102 W/m² | - |
| 1777993542 | 12.78° C | 66% | 1007.9 hPa | 0 mm | - | 72 W/m² | - |
| 1777993239 | 12.78° C | 65% | 1007.8 hPa | 0 mm | - | 101 W/m² | - |
| 1777992935 | 12.78° C | 67% | 1007.7 hPa | 0 mm | - | 115 W/m² | - |
| 1777992633 | 12.78° C | 67% | 1007.7 hPa | 0 mm | - | 112 W/m² | - |
| 1777992331 | 12.78° C | 66% | 1007.5 hPa | 0 mm | - | 112 W/m² | - |
| 1777992028 | 12.78° C | 65% | 1007.7 hPa | 0 mm | - | 116 W/m² | - |
| 1777991726 | 12.78° C | 64% | 1007.4 hPa | 0 mm | - | 80 W/m² | - |
| 1777991422 | 12.78° C | 64% | 1007.4 hPa | 0 mm | - | 115 W/m² | - |
| 1777991120 | 13.33° C | 65% | 1007.1 hPa | 0 mm | - | 133 W/m² | - |
| 1777990817 | 13.33° C | 63% | 1007.4 hPa | 0 mm | - | 124 W/m² | - |
| 1777990514 | 13.89° C | 63% | 1007.6 hPa | 0 mm | - | 131 W/m² | - |
| 1777989908 | 13.33° C | 63% | 1007.2 hPa | 0 mm | - | 188 W/m² | - |
| 1777989604 | 13.89° C | 62% | 1007.3 hPa | 0 mm | - | 147 W/m² | - |
| 1777989301 | 13.89° C | 62% | 1007.2 hPa | 0 mm | - | 188 W/m² | - |
| 1777988997 | 13.33° C | 62% | 1006.9 hPa | 0 mm | - | 201 W/m² | - |
| 1777988693 | 13.89° C | 61% | 1007.1 hPa | 0 mm | - | 144 W/m² | - |
| 1777988390 | 13.89° C | 60% | 1006.9 hPa | 0 mm | - | 167 W/m² | - |
| 1777988088 | 14.44° C | 60% | 1006.7 hPa | 0 mm | - | 166 W/m² | - |
| 1777987783 | 14.44° C | 59% | 1006.4 hPa | 0 mm | - | 196 W/m² | - |
| 1777987480 | 14.44° C | 59% | 1006.5 hPa | 0 mm | - | 277 W/m² | - |
| 1777987178 | 13.89° C | 60% | 1006 hPa | 0 mm | - | 198 W/m² | - |
| 1777986874 | 14.44° C | 58% | 1005.8 hPa | 0 mm | - | 123 W/m² | - |
| 1777986572 | 15° C | 57% | 1006.1 hPa | 0 mm | - | 140 W/m² | - |
* Rain latest hour (hover to see other rain measurements)
** Current wind speed in m/s (hover to see current wind gust speed)